Location: Newark
(31.4565°N, 75.7559°E)
Time: 16:45:59
(UTC+00:00)

N. Korean satellite - Visible Passes

Search period start: 21 January 2020 00:00
Search period end: 31 January 2020 00:00
Orbit: 454 x 507 km, 97.2° (Epoch: 20 January)

Date Brightness Start Highest point End Pass type
(mag) Time Alt. Az. Time Alt. Az. Time Alt. Az.
21 Jan 7.4 01:14:12 10° NNW 01:17:16 28° WNW 01:20:23 10° SW visible
22 Jan 6.4 00:48:20 10° N 00:51:53 69° WNW 00:55:27 10° SSW visible
22 Jan 9.7 12:53:08 10° SW 12:55:27 17° W 12:57:45 10° NW visible
23 Jan 7.6 00:22:56 10° NNE 00:26:24 46° E 00:29:53 10° S visible
23 Jan 9.3 23:58:09 10° NE 00:00:52 20° E 00:03:36 10° SE visible
25 Jan 7.1 01:05:22 10° N 01:08:42 37° WNW 01:12:04 10° SW visible
26 Jan 6.5 00:39:40 10° NNE 00:43:16 88° ESE 00:46:55 10° S visible
27 Jan 8.3 00:14:27 10° NNE 00:17:47 35° E 00:21:09 10° SSE visible
27 Jan 9.7 23:49:55 10° NE 23:52:12 16° E 23:54:30 10° SE visible
28 Jan 7.8 01:22:38 10° NNW 01:25:29 22° WNW 01:28:21 10° SW visible
29 Jan 6.7 00:56:35 10° N 01:00:06 50° WNW 01:03:40 10° SSW visible
29 Jan 10.0 13:02:05 10° WSW 13:03:40 13° W 13:05:17 10° WNW visible
30 Jan 7.0 00:31:02 10° NNE 00:34:39 65° E 00:38:18 10° S visible
